| time (UTC) | temp C | wind direction | speed KPH | gust KPH | rain 1hr cm | rain 24hr cm | rain mn cm | humidity % | barometer mb |
| 20260901173904 | 16 | 199 | 0.0 | 0.0 | 0.00 | 0.00 | 0.00 | 88 | 1018.3 |
| 20260901170902 | 16 | 200 | 0.0 | 0.0 | 0.00 | 0.00 | 0.00 | 89 | 1018.3 |
| 20260901163900 | 15 | 190 | 1.6 | 1.6 | 0.00 | 0.00 | 0.00 | 93 | 1018.1 |
| 20260901160855 | 14 | 190 | 1.6 | 3.2 | 0.00 | 0.00 | 0.00 | 94 | 1018.5 |
| 20260901153854 | 14 | 186 | 3.2 | 3.2 | 0.00 | 0.00 | 0.00 | 96 | 1018.6 |
| 20260901150854 | 13 | 186 | 1.6 | 1.6 | 0.00 | 0.00 | 0.00 | 97 | 1018.6 |
| 20260901143853 | 12 | 202 | 0.0 | 0.0 | 0.00 | 0.00 | 0.00 | 99 | 1018.3 |
| 20260901140851 | 12 | 209 | 0.0 | 0.0 | 0.00 | 0.00 | 0.00 | 99 | 1018.0 |
| 20260901133848 | 11 | 198 | 0.0 | 0.0 | 0.00 | 0.00 | 0.00 | 99 | 1018.0 |
| 20260901130847 | 12 | 189 | 1.6 | 1.6 | 0.00 | 0.00 | 0.00 | 99 | 1017.9 |
| 20260901123846 | 12 | 192 | 1.6 | 1.6 | 0.00 | 0.00 | 0.00 | 99 | 1017.8 |
| 20260901120842 | 12 | 199 | 0.0 | 0.0 | 0.00 | 0.00 | 0.00 | 99 | 1017.4 |
| 20260901113841 | 12 | 203 | 0.0 | 0.0 | 0.00 | 0.00 | 0.00 | 99 | 1016.9 |
| 20260901110839 | 12 | 201 | 0.0 | 0.0 | 0.00 | 0.00 | 0.00 | 99 | 1017.2 |
| 20260901103836 | 12 | 198 | 0.0 | 0.0 | 0.00 | 0.00 | 0.00 | 99 | 1017.0 |
| 20260901100832 | 12 | 196 | 0.0 | 0.0 | 0.00 | 0.00 | 0.00 | 99 | 1016.7 |
| 20260901093831 | 12 | 193 | 0.0 | 0.0 | 0.00 | 0.00 | 0.00 | 99 | 1016.3 |
| 20260901090830 | 13 | 194 | 0.0 | 1.6 | 0.00 | 0.00 | 0.00 | 97 | 1016.5 |
| 20260901083826 | 14 | 199 | 0.0 | 0.0 | 0.00 | 0.00 | 0.00 | 96 | 1016.4 |
| 20260901080822 | 14 | 201 | 0.0 | 0.0 | 0.00 | 0.00 | 0.00 | 94 | 1016.0 |
| 20260901073820 | 15 | 200 | 0.0 | 0.0 | 0.00 | 0.00 | 0.00 | 90 | 1016.3 |
| 20260901070821 | 15 | 197 | 0.0 | 0.0 | 0.00 | 0.00 | 0.00 | 88 | 1016.1 |
| 20260901063817 | 16 | 201 | 0.0 | 0.0 | 0.00 | 0.00 | 0.00 | 85 | 1016.1 |
| 20260901060813 | 16 | 205 | 0.0 | 0.0 | 0.00 | 0.00 | 0.00 | 82 | 1016.2 |
| 20260901053812 | 17 | 209 | 1.6 | 3.2 | 0.00 | 0.00 | 0.00 | 81 | 1016.1 |
| 20260901050810 | 17 | 197 | 0.0 | 1.6 | 0.00 | 0.00 | 0.00 | 79 | 1016.3 |
| 20260901043806 | 18 | 197 | 0.0 | 0.0 | 0.00 | 0.00 | 0.00 | 79 | 1016.2 |
| 20260901040804 | 18 | 203 | 0.0 | 0.0 | 0.00 | 0.00 | 0.00 | 77 | 1016.4 |
| 20260901033801 | 18 | 208 | 0.0 | 0.0 | 0.00 | 0.00 | 0.00 | 75 | 1016.2 |
| 20260901030802 | 20 | 211 | 0.0 | 0.0 | 0.00 | 0.00 | 0.00 | 73 | 1015.7 |
| 20260901023800 | 20 | 199 | 0.0 | 0.0 | 0.00 | 0.00 | 0.00 | 70 | 1015.7 |
| 20260901020756 | 21 | 225 | 1.6 | 1.6 | 0.00 | 0.00 | 0.00 | 69 | 1015.9 |
| 20260901013756 | 21 | 194 | 1.6 | 1.6 | 0.00 | 0.00 | 0.00 | 66 | 1015.8 |
| 20260901010755 | 22 | 212 | 0.0 | 1.6 | 0.00 | 0.00 | 0.00 | 64 | 1015.8 |
| 20260901003750 | 23 | 221 | 0.0 | 1.6 | 0.00 | 0.00 | 0.00 | 63 | 1015.7 |
| 20260901000748 | 24 | 237 | 3.2 | 3.2 | 0.00 | 0.00 | 0.00 | 57 | 1015.6 |
| 20260831233744 | 25 | 283 | 3.2 | 3.2 | 0.00 | 0.00 | 0.00 | 55 | 1016.2 |
| 20260831230741 | 24 | 209 | 3.2 | 3.2 | 0.00 | 0.00 | 0.00 | 58 | 1016.4 |
| 20260831223740 | 24 | 272 | 3.2 | 4.8 | 0.00 | 0.00 | 0.00 | 56 | 1016.9 |
| 20260831220736 | 25 | 261 | 3.2 | 3.2 | 0.00 | 0.00 | 0.00 | 55 | 1017.1 |
| 20260831213735 | 25 | 236 | 1.6 | 3.2 | 0.00 | 0.00 | 0.00 | 55 | 1017.3 |
| 20260831210734 | 25 | 224 | 1.6 | 3.2 | 0.00 | 0.00 | 0.00 | 55 | 1017.6 |
| 20260831203731 | 25 | 187 | 1.6 | 3.2 | 0.00 | 0.00 | 0.00 | 56 | 1018.4 |
| 20260831200726 | 23 | 223 | 1.6 | 1.6 | 0.00 | 0.00 | 0.00 | 58 | 1018.7 |
| 20260831193724 | 24 | 208 | 0.0 | 1.6 | 0.00 | 0.00 | 0.00 | 56 | 1019.2 |
| 20260831190721 | 23 | 209 | 0.0 | 0.0 | 0.00 | 0.00 | 0.00 | 57 | 1019.7 |
| 20260831183717 | 23 | 231 | 1.6 | 3.2 | 0.00 | 0.00 | 0.00 | 57 | 1020.1 |
| 20260831180714 | 21 | 214 | 1.6 | 1.6 | 0.00 | 0.00 | 0.00 | 65 | 1020.3 |